�N����,�����b,�ŏ������i�x�j,���ϕ����i�x�j,�ő啗���i�x�j,�ŏ�����(m/s),���ϕ���(m/s),�ő啗��(m/s),�C��(���j,���x�i���j,�C��(hPa),�~�J��(mm),�~�J����(�b�j,�~�J���x(mm/h),�ő�~�J���x(mm/h),�~�Ђ傤��(hit/���u),�~�Ђ傤����(�b�j,�~�Ђ傤���x(hit/���uh),�ő�~�Ђ傤���x(hit/���uh),�q�[�^���x(���j,�q�[�^�[�d���iV),�d���d���iV),�Q�Ɠd���iV)
2012/12/01,00:00:01,020,032,049,4.8,5.5,6.1,20.5,69.7,1010.3,0.00,0,0.0,////,0.0,0,0.0,////,19.6,0.0,12.2,3.523
2012/12/01,00:10:01,009,045,065,5.3,5.7,6.3,20.5,69.8,1010.4,0.00,0,0.0,////,0.0,0,0.0,////,19.4,0.0,12.4,3.523
2012/12/01,00:20:01,034,048,055,4.2,4.8,5.7,20.4,69.4,1010.4,0.00,0,0.0,////,0.0,0,0.0,////,19.4,0.0,12.3,3.521
2012/12/01,00:30:01,010,012,013,3.6,4.5,5.1,20.4,70.3,1010.4,0.00,0,0.0,////,0.0,0,0.0,////,19.3,0.0,12.3,3.521
2012/12/01,00:40:01,052,062,080,2.6,2.9,3.1,20.3,69.2,1010.4,0.00,0,0.0,////,0.0,0,0.0,////,19.3,0.0,12.2,3.523
2012/12/01,00:50:01,044,046,049,1.8,2.9,4.1,20.4,68.8,1010.3,0.00,0,0.0,////,0.0,0,0.0,////,19.3,0.0,12.3,3.523
2012/12/01,01:00:01,027,031,034,4.4,5.4,6.3,20.5,68.4,1010.5,0.00,0,0.0,////,0.0,0,0.0,////,19.4,0.0,12.3,3.523
2012/12/01,01:10:01,029,036,044,4.6,4.9,5.2,20.6,70.4,1010.4,0.00,0,0.0,////,0.0,0,0.0,////,19.6,0.0,12.2,3.523
2012/12/01,01:20:01,016,031,051,3.5,4.6,5.9,20.4,68.6,1010.0,0.00,0,0.0,////,0.0,0,0.0,////,19.3,0.0,12.2,3.523
2012/12/01,01:30:01,040,043,047,8.5,9.2,10.2,20.4,68.4,1010.1,0.00,0,0.0,////,0.0,0,0.0,////,19.4,0.0,12.3,3.521
2012/12/01,01:40:01,013,031,042,5.1,6.8,8.2,20.5,68.1,1010.6,0.00,0,0.0,////,0.0,0,0.0,////,19.6,0.0,12.2,3.523
2012/12/01,01:50:01,016,025,033,4.4,5.9,7.6,20.4,68.5,1011.0,0.00,0,0.0,////,0.0,0,0.0,////,19.3,0.0,12.3,3.523
2012/12/01,02:00:01,033,043,057,5.8,6.8,7.7,20.4,69.4,1010.6,0.00,0,0.0,////,0.0,0,0.0,////,19.4,0.0,12.4,3.523
2012/12/01,02:10:01,030,041,053,4.8,5.2,6.1,20.3,68.7,1010.5,0.00,0,0.0,////,0.0,0,0.0,////,19.3,0.0,12.3,3.521
2012/12/01,02:20:01,013,023,039,1.7,2.9,3.5,20.3,68.4,1010.5,0.00,0,0.0,////,0.0,0,0.0,////,19.3,0.0,12.3,3.523
2012/12/01,02:30:01,028,032,035,5.6,5.9,6.2,20.2,67.8,1010.5,0.00,0,0.0,////,0.0,0,0.0,////,19.3,0.0,12.3,3.523
2012/12/01,02:40:01,039,044,052,4.0,4.7,5.5,20.3,67.9,1010.2,0.00,0,0.0,////,0.0,0,0.0,////,19.1,0.0,12.3,3.521
2012/12/01,02:50:01,024,031,035,6.5,7.1,7.5,20.3,67.7,1010.3,0.00,0,0.0,////,0.0,0,0.0,////,19.1,0.0,12.3,3.523
2012/12/01,03:00:01,021,031,038,5.6,6.6,7.7,20.2,68.1,1010.2,0.00,0,0.0,////,0.0,0,0.0,////,19.1,0.0,12.2,3.523
2012/12/01,03:10:01,028,031,033,5.6,6.6,7.4,20.2,69.8,1010.3,0.00,0,0.0,////,0.0,0,0.0,////,19.3,0.0,12.3,3.523
2012/12/01,03:20:01,010,032,055,5.4,6.1,6.6,20.2,68.8,1010.3,0.00,0,0.0,////,0.0,0,0.0,////,19.3,0.0,12.2,3.520
2012/12/01,03:30:01,027,041,053,7.8,8.2,9.0,20.2,68.4,1009.9,0.00,0,0.0,////,0.0,0,0.0,////,19.3,0.0,12.3,3.523
2012/12/01,03:40:01,033,036,039,4.4,6.2,7.3,20.1,66.3,1010.2,0.00,0,0.0,////,0.0,0,0.0,////,19.3,0.0,12.4,3.521
2012/12/01,03:50:01,027,031,034,7.8,8.3,8.7,20.2,66.8,1010.4,0.00,0,0.0,////,0.0,0,0.0,////,19.3,0.0,12.3,3.521
2012/12/01,04:00:01,041,045,049,5.2,5.9,7.0,20.3,67.2,1010.6,0.00,0,0.0,////,0.0,0,0.0,////,19.1,0.0,12.3,3.523
2012/12/01,04:10:01,000,023,039,6.0,6.4,7.0,20.2,67.1,1010.4,0.00,0,0.0,////,0.0,0,0.0,////,19.1,0.0,12.3,3.523
2012/12/01,04:20:01,036,042,054,2.3,3.1,3.9,20.1,68.1,1010.5,0.00,0,0.0,////,0.0,0,0.0,////,19.1,0.0,12.3,3.521
2012/12/01,04:30:01,017,028,040,3.0,3.9,4.4,20.1,68.4,1010.5,0.00,0,0.0,////,0.0,0,0.0,////,19.1,0.0,12.2,3.523
2012/12/01,04:40:01,024,035,041,5.8,6.6,7.6,20.0,68.9,1010.1,0.00,0,0.0,////,0.0,0,0.0,////,18.9,0.0,12.2,3.523
2012/12/01,04:50:01,022,037,049,5.7,6.2,6.6,19.9,68.4,1010.1,0.00,0,0.0,////,0.0,0,0.0,////,18.7,0.0,12.2,3.521
2012/12/01,05:00:01,039,042,048,5.5,6.9,9.0,20.1,67.7,1010.4,0.00,0,0.0,////,0.0,0,0.0,////,19.1,0.0,12.4,3.521
2012/12/01,05:10:01,033,046,056,6.1,6.5,6.7,20.1,64.9,1010.6,0.00,0,0.0,////,0.0,0,0.0,////,19.1,0.0,12.2,3.523
2012/12/01,05:20:01,018,037,058,5.5,6.4,7.5,19.9,65.6,1010.4,0.00,0,0.0,////,0.0,0,0.0,////,19.1,0.0,12.3,3.523
2012/12/01,05:30:01,045,049,052,5.0,5.7,6.2,20.1,66.1,1010.4,0.00,0,0.0,////,0.0,0,0.0,////,19.1,0.0,12.3,3.521
2012/12/01,05:40:01,036,041,047,8.0,8.8,9.8,19.9,64.1,1010.8,0.00,0,0.0,////,0.0,0,0.0,////,19.4,0.0,12.3,3.523
2012/12/01,05:50:01,047,055,068,4.2,5.5,6.9,20.0,66.6,1010.9,0.00,0,0.0,////,0.0,0,0.0,////,18.7,0.0,12.3,3.523
2012/12/01,06:00:01,035,041,047,8.5,9.8,10.4,19.9,65.1,1010.8,0.00,0,0.0,////,0.0,0,0.0,////,19.1,0.0,12.3,3.523
2012/12/01,06:10:01,356,019,037,3.2,5.3,6.9,20.0,65.3,1010.8,0.00,0,0.0,////,0.0,0,0.0,////,18.9,0.0,12.2,3.523
2012/12/01,06:20:01,030,040,048,5.3,6.2,7.5,19.8,64.9,1010.8,0.00,0,0.0,////,0.0,0,0.0,////,18.9,0.0,12.4,3.521
2012/12/01,06:30:01,019,027,042,6.5,6.9,7.2,20.0,67.1,1011.1,0.00,0,0.0,////,0.0,0,0.0,////,18.9,0.0,12.3,3.523
2012/12/01,06:40:01,005,014,022,5.8,6.3,6.9,19.9,66.6,1011.2,0.00,0,0.0,////,0.0,0,0.0,////,18.7,0.0,12.4,3.521
2012/12/01,06:50:01,029,048,061,4.8,5.6,6.1,20.0,65.4,1011.8,0.00,0,0.0,////,0.0,0,0.0,////,19.1,0.0,12.2,3.523
2012/12/01,07:00:01,014,031,039,4.3,4.8,5.2,19.8,64.7,1011.7,0.00,0,0.0,////,0.0,0,0.0,////,18.9,0.0,12.3,3.521
2012/12/01,07:10:01,028,036,047,5.1,6.2,7.0,19.9,64.1,1011.8,0.00,0,0.0,////,0.0,0,0.0,////,18.9,0.0,12.2,3.521
2012/12/01,07:20:01,010,035,060,5.0,5.6,6.6,19.8,63.6,1011.3,0.00,0,0.0,////,0.0,0,0.0,////,18.9,0.0,12.3,3.521
2012/12/01,07:30:01,016,053,089,4.0,6.1,7.6,19.7,63.9,1011.4,0.00,0,0.0,////,0.0,0,0.0,////,18.7,0.0,12.3,3.523
2012/12/01,07:40:01,009,028,055,6.6,7.5,8.4,19.8,65.2,1012.0,0.00,0,0.0,////,0.0,0,0.0,////,18.7,0.0,12.2,3.521
2012/12/01,07:50:01,018,041,056,3.4,4.2,4.9,19.8,65.6,1012.6,0.00,0,0.0,////,0.0,0,0.0,////,18.9,0.0,12.2,3.521
2012/12/01,08:00:01,046,090,124,0.8,1.2,2.0,19.9,64.3,1012.7,0.00,0,0.0,////,0.0,0,0.0,////,19.3,0.0,12.3,3.523
2012/12/01,08:10:01,035,046,054,5.3,6.2,7.4,19.9,64.4,1012.7,0.00,0,0.0,////,0.0,0,0.0,////,19.3,0.0,12.3,3.523
2012/12/01,08:20:01,040,057,089,2.7,3.8,4.9,19.9,63.7,1012.7,0.00,0,0.0,////,0.0,0,0.0,////,19.4,0.0,12.3,3.521
2012/12/01,08:30:01,057,059,061,6.5,7.9,9.4,20.0,65.7,1012.2,0.00,0,0.0,////,0.0,0,0.0,////,19.3,0.0,12.4,3.521
2012/12/01,08:40:01,056,070,081,4.0,4.7,5.5,19.8,63.8,1011.8,0.00,0,0.0,////,0.0,0,0.0,////,19.3,0.0,12.3,3.521
2012/12/01,08:50:01,049,056,061,3.8,4.8,5.3,19.8,64.1,1012.2,0.00,0,0.0,////,0.0,0,0.0,////,19.1,0.0,12.3,3.521
2012/12/01,09:00:01,025,030,035,6.9,7.2,7.5,19.8,63.8,1012.6,0.00,0,0.0,////,0.0,0,0.0,////,18.9,0.0,12.4,3.523
2012/12/01,09:10:01,055,071,083,3.6,3.8,4.1,19.9,63.3,1012.8,0.00,0,0.0,////,0.0,0,0.0,////,19.1,0.0,12.3,3.521
2012/12/01,09:20:01,034,057,074,2.6,4.2,5.9,19.9,62.8,1012.8,0.00,0,0.0,////,0.0,0,0.0,////,19.3,0.0,12.2,3.521
2012/12/01,09:30:01,045,059,077,4.4,4.6,5.0,20.0,64.8,1012.4,0.00,0,0.0,////,0.0,0,0.0,////,19.3,0.0,12.2,3.521
2012/12/01,09:40:01,029,051,058,4.7,6.2,7.1,20.0,63.9,1012.3,0.00,0,0.0,////,0.0,0,0.0,////,19.8,0.0,12.3,3.520
2012/12/01,09:50:01,045,082,116,2.0,2.6,3.6,20.1,62.2,1012.3,0.00,0,0.0,////,0.0,0,0.0,////,19.6,0.0,12.3,3.521
2012/12/01,10:00:01,052,056,060,4.1,4.7,5.0,20.1,65.4,1012.6,0.00,0,0.0,////,0.0,0,0.0,////,19.6,0.0,12.4,3.521
2012/12/01,10:10:01,012,021,030,6.4,7.2,8.3,20.1,64.8,1012.6,0.00,0,0.0,////,0.0,0,0.0,////,19.6,0.0,12.2,3.521
2012/12/01,10:20:01,025,042,060,8.4,8.5,8.7,20.1,64.3,1012.3,0.00,0,0.0,////,0.0,0,0.0,////,19.6,0.0,12.4,3.521
2012/12/01,10:30:01,038,052,064,2.8,3.0,3.2,20.3,65.1,1012.4,0.00,0,0.0,////,0.0,0,0.0,////,20.1,0.0,12.3,3.523
2012/12/01,10:40:01,067,080,087,2.8,3.2,3.9,20.6,63.8,1012.5,0.00,0,0.0,////,0.0,0,0.0,////,20.6,0.0,12.3,3.524
2012/12/01,10:50:01,032,052,073,4.5,4.8,5.1,20.4,63.1,1012.5,0.00,0,0.0,////,0.0,0,0.0,////,20.3,0.0,12.3,3.523
2012/12/01,11:00:01,030,061,091,1.9,2.5,3.0,20.3,63.5,1012.2,0.00,0,0.0,////,0.0,0,0.0,////,20.1,0.0,12.3,3.521
2012/12/01,11:10:01,062,064,066,3.2,3.4,3.7,20.2,63.6,1011.8,0.00,0,0.0,////,0.0,0,0.0,////,20.0,0.0,12.3,3.521
2012/12/01,11:20:01,058,081,096,4.4,4.5,4.6,20.5,63.2,1011.5,0.00,0,0.0,////,0.0,0,0.0,////,20.6,0.0,12.3,3.523
2012/12/01,11:30:01,016,037,065,3.9,5.6,7.2,20.7,61.1,1011.5,0.00,0,0.0,////,0.0,0,0.0,////,21.3,0.0,12.2,3.521
2012/12/01,11:40:01,072,077,084,5.8,6.7,7.5,20.8,61.1,1011.4,0.00,0,0.0,////,0.0,0,0.0,////,21.2,0.0,12.3,3.523
2012/12/01,11:50:01,058,066,070,5.6,5.9,6.2,20.8,60.4,1011.4,0.00,0,0.0,////,0.0,0,0.0,////,21.0,0.0,12.3,3.521
2012/12/01,12:00:01,046,060,071,4.7,5.4,6.0,20.7,59.7,1011.6,0.00,0,0.0,////,0.0,0,0.0,////,21.2,0.0,12.3,3.521
2012/12/01,12:10:01,358,038,058,3.6,4.9,5.7,20.7,58.2,1011.4,0.00,0,0.0,////,0.0,0,0.0,////,21.2,0.0,12.3,3.521
2012/12/01,12:20:01,047,053,060,3.9,4.4,4.7,20.8,57.8,1011.4,0.00,0,0.0,////,0.0,0,0.0,////,21.3,0.0,12.3,3.521
2012/12/01,12:30:01,054,060,067,1.9,2.6,2.9,20.8,56.8,1011.3,0.00,0,0.0,////,0.0,0,0.0,////,21.3,0.0,12.2,3.523
2012/12/01,12:40:01,022,034,045,4.0,4.9,5.8,20.9,56.2,1011.1,0.00,0,0.0,////,0.0,0,0.0,////,21.7,0.0,12.3,3.521
2012/12/01,12:50:01,334,019,065,1.6,3.4,5.6,20.8,57.1,1010.9,0.00,0,0.0,////,0.0,0,0.0,////,21.3,0.0,12.3,3.521
2012/12/01,13:00:01,058,064,068,4.3,4.5,4.6,20.8,58.6,1010.5,0.00,0,0.0,////,0.0,0,0.0,////,21.0,0.0,12.3,3.521
2012/12/01,13:10:01,353,001,007,2.4,2.8,3.0,20.6,60.0,1010.7,0.00,0,0.0,////,0.0,0,0.0,////,20.6,0.0,12.3,3.521
2012/12/01,13:20:01,051,063,081,2.9,3.8,4.5,20.5,59.5,1010.7,0.00,0,0.0,////,0.0,0,0.0,////,20.1,0.0,12.3,3.523
2012/12/01,13:30:01,034,041,047,3.9,6.3,7.7,20.4,58.4,1010.7,0.00,0,0.0,////,0.0,0,0.0,////,19.8,0.0,12.3,3.523
2012/12/01,13:40:01,028,035,050,5.9,6.7,7.2,20.4,61.7,1010.5,0.01,40,0.5,////,0.0,0,0.0,////,20.0,0.0,12.2,3.523
2012/12/01,13:50:01,017,030,035,3.4,5.7,6.4,19.7,70.7,1010.4,0.35,580,1.8,////,0.0,0,0.0,////,18.4,0.0,12.3,3.521
2012/12/01,14:00:01,025,033,047,5.3,5.7,6.1,19.0,73.4,1010.7,0.37,590,0.6,////,0.0,0,0.0,////,17.0,0.0,12.3,3.521
2012/12/01,14:10:01,047,053,056,4.8,5.8,6.5,18.9,73.9,1010.7,0.03,270,0.0,////,0.0,0,0.0,////,17.0,0.0,12.4,3.523
2012/12/01,14:20:01,042,065,087,3.8,4.5,5.8,18.8,72.1,1010.5,0.00,0,0.0,////,0.0,0,0.0,////,17.2,0.0,12.3,3.523
2012/12/01,14:30:01,070,075,079,3.1,3.5,4.1,19.0,72.0,1010.6,0.00,10,0.0,////,0.0,0,0.0,////,17.5,0.0,12.2,3.521
2012/12/01,14:40:01,043,068,095,3.6,4.4,5.6,19.0,69.7,1010.0,0.00,0,0.0,////,0.0,0,0.0,////,18.1,0.0,12.4,3.523
2012/12/01,14:50:01,057,063,072,6.8,7.3,7.9,19.2,69.9,1010.0,0.00,20,0.0,////,0.0,0,0.0,////,18.2,0.0,12.3,3.521
2012/12/01,15:00:01,058,068,073,5.5,6.1,6.5,18.8,70.1,1010.0,0.21,580,0.2,////,0.0,0,0.0,////,17.2,0.0,12.2,3.523
2012/12/01,15:10:01,041,070,100,2.3,2.7,3.2,18.7,72.6,1010.0,0.01,120,0.0,////,0.0,0,0.0,////,16.7,0.0,12.3,3.523
2012/12/01,15:20:01,070,075,080,6.7,7.7,8.9,18.7,74.1,1010.1,0.04,400,0.8,////,0.0,0,0.0,////,16.7,0.0,12.2,3.523
2012/12/01,15:30:01,060,081,107,3.6,5.1,6.0,18.3,75.2,1010.2,0.24,580,0.9,////,0.0,0,0.0,////,16.3,0.0,12.2,3.521
2012/12/01,15:40:01,040,052,070,4.4,5.3,6.0,18.0,77.3,1010.1,0.10,530,0.4,////,0.0,0,0.0,////,16.0,0.0,12.3,3.524
2012/12/01,15:50:01,050,064,073,3.7,4.4,5.1,17.7,74.2,1010.1,0.08,530,0.5,////,0.0,0,0.0,////,16.0,0.0,12.2,3.523
2012/12/01,16:00:01,084,096,103,5.3,5.5,5.7,17.9,74.1,1009.9,0.08,510,0.1,////,0.0,0,0.0,////,15.8,0.0,12.2,3.523
2012/12/01,16:10:01,030,041,061,1.4,1.8,2.2,18.1,73.6,1009.4,0.04,330,0.3,////,0.0,0,0.0,////,16.0,0.0,12.2,3.521
2012/12/01,16:20:01,077,087,094,2.2,2.4,2.7,18.2,72.9,1009.5,0.07,490,0.2,////,0.0,0,0.0,////,15.8,0.0,12.3,3.524
2012/12/01,16:30:01,080,086,094,3.8,4.5,5.0,18.4,75.0,1009.5,0.02,200,0.0,////,0.0,0,0.0,////,16.5,0.0,12.4,3.521
2012/12/01,16:40:01,061,081,094,4.7,5.2,5.7,18.4,72.4,1009.5,0.01,80,0.0,////,0.0,0,0.0,////,16.5,0.0,12.2,3.523
2012/12/01,16:50:01,076,089,109,1.7,2.5,3.3,18.7,71.5,1010.1,0.01,140,0.0,////,0.0,0,0.0,////,16.5,0.0,12.2,3.523
2012/12/01,17:00:01,071,081,087,2.2,2.9,4.0,18.6,71.8,1010.3,0.00,40,0.0,////,0.0,0,0.0,////,16.7,0.0,12.2,3.523
2012/12/01,17:10:01,067,076,083,2.5,2.9,3.2,18.2,73.6,1010.5,0.52,590,1.8,////,0.0,0,0.0,////,16.0,0.0,12.3,3.523
2012/12/01,17:20:01,046,049,050,1.9,3.1,4.1,18.0,75.8,1010.3,0.08,490,0.4,////,0.0,0,0.0,////,16.0,0.0,12.3,3.526
2012/12/01,17:30:01,049,060,073,2.9,3.1,3.5,17.8,77.1,1010.7,0.15,540,1.3,////,0.0,0,0.0,////,15.8,0.0,12.3,3.525
2012/12/01,17:40:01,034,046,060,5.6,6.0,6.4,17.8,77.0,1010.9,0.20,540,3.3,////,0.0,0,0.0,////,15.8,0.0,12.2,3.523
2012/12/01,17:50:01,026,040,046,5.1,6.0,7.0,17.5,78.5,1011.2,0.57,590,4.0,////,0.0,0,0.0,////,15.5,0.0,12.2,3.521
2012/12/01,18:00:01,047,087,122,1.2,2.3,3.5,17.4,80.3,1012.2,0.26,560,0.1,////,0.0,0,0.0,////,15.5,0.0,12.4,3.524
2012/12/01,18:10:01,056,072,091,3.2,4.7,5.8,17.2,80.5,1011.7,0.23,510,2.0,////,0.0,0,0.0,////,15.5,0.0,12.3,3.521
2012/12/01,18:20:01,051,062,070,4.1,4.9,5.6,17.3,82.8,1011.5,0.33,590,1.3,////,0.0,0,0.0,////,15.5,0.0,12.3,3.523
2012/12/01,18:30:01,048,057,069,5.1,5.3,5.5,17.1,83.5,1011.1,0.21,570,0.7,////,0.0,0,0.0,////,15.3,0.0,12.3,3.521
2012/12/01,18:40:01,081,095,109,6.2,6.8,7.2,17.2,83.5,1011.6,0.13,470,0.3,////,0.0,0,0.0,////,15.5,0.0,12.3,3.521
2012/12/01,18:50:01,063,071,084,4.4,5.0,5.3,17.3,82.1,1011.7,0.01,140,0.1,////,0.0,0,0.0,////,15.6,0.0,12.4,3.521
2012/12/01,19:00:01,071,074,077,3.1,3.6,4.3,17.3,81.3,1011.1,0.01,180,0.0,////,0.0,0,0.0,////,15.6,0.0,12.4,3.523
2012/12/01,19:10:01,055,062,067,4.6,5.0,5.5,17.5,81.0,1011.1,0.01,60,0.0,////,0.0,0,0.0,////,15.8,0.0,12.2,3.521
2012/12/01,19:20:01,074,094,105,7.0,7.4,7.7,17.5,79.6,1012.4,0.01,230,0.1,////,0.0,0,0.0,////,16.0,0.0,12.4,3.523
2012/12/01,19:30:01,088,089,091,4.2,4.8,5.4,17.5,79.1,1012.1,0.28,430,4.5,////,0.0,0,0.0,////,15.8,0.0,12.3,3.523
2012/12/01,19:40:01,071,080,090,4.3,5.3,6.1,17.2,79.6,1012.2,0.25,580,0.6,////,0.0,0,0.0,////,15.3,0.0,12.2,3.523
2012/12/01,19:50:01,052,069,092,4.3,6.7,8.8,17.3,78.9,1011.6,0.04,400,0.2,////,0.0,0,0.0,////,15.6,0.0,12.3,3.524
2012/12/01,20:00:01,077,091,100,2.9,3.6,4.3,17.2,80.6,1011.3,0.05,340,0.0,////,0.0,0,0.0,////,15.5,0.0,12.4,3.525
2012/12/01,20:10:01,023,062,087,4.2,4.7,5.1,17.3,81.8,1011.2,0.00,0,0.0,////,0.0,0,0.0,////,15.5,0.0,12.3,3.521
2012/12/01,20:20:01,049,064,078,2.8,3.2,3.9,17.4,80.2,1010.4,0.00,0,0.0,////,0.0,0,0.0,////,15.8,0.0,12.3,3.523
2012/12/01,20:30:01,076,086,100,3.1,3.8,5.0,17.6,80.0,1011.1,0.00,0,0.0,////,0.0,0,0.0,////,16.2,0.0,12.2,3.521
2012/12/01,20:40:01,040,070,089,2.2,2.4,2.9,17.8,79.1,1011.6,0.00,0,0.0,////,0.0,0,0.0,////,16.5,0.0,12.3,3.521
2012/12/01,20:50:01,050,060,069,2.5,4.9,7.1,17.8,80.8,1011.9,0.03,240,0.0,////,0.0,0,0.0,////,16.3,0.0,12.4,3.521
2012/12/01,21:00:01,003,018,028,5.0,6.4,7.1,17.8,81.1,1011.2,0.03,170,0.5,////,0.0,0,0.0,////,16.5,0.0,12.3,3.521
2012/12/01,21:10:01,043,051,058,4.3,4.6,5.0,17.7,82.0,1010.9,0.05,450,0.0,////,0.0,0,0.0,////,16.2,0.0,12.2,3.523
2012/12/01,21:20:01,057,063,069,9.7,10.0,10.4,17.7,82.4,1011.0,0.00,20,0.0,////,0.0,0,0.0,////,16.2,0.0,12.3,3.524
2012/12/01,21:30:01,092,094,097,4.2,4.7,5.5,17.6,82.2,1010.7,0.00,0,0.0,////,0.0,0,0.0,////,16.2,0.0,12.2,3.523
2012/12/01,21:40:01,085,105,122,5.0,5.8,6.8,17.7,82.4,1010.8,0.02,110,0.6,////,0.0,0,0.0,////,16.0,0.0,12.3,3.521
2012/12/01,21:50:01,089,102,116,2.3,3.4,5.6,17.7,82.2,1010.7,0.00,50,0.0,////,0.0,0,0.0,////,16.3,0.0,12.3,3.521
2012/12/01,22:00:01,022,046,077,5.4,6.6,7.1,17.8,80.9,1010.7,0.00,0,0.0,////,0.0,0,0.0,////,16.3,0.0,12.2,3.521
2012/12/01,22:10:01,082,085,090,6.7,8.5,9.5,18.0,80.5,1010.7,0.06,340,0.0,////,0.0,0,0.0,////,16.5,0.0,12.4,3.523
2012/12/01,22:20:01,057,072,086,4.1,5.7,7.1,17.8,80.1,1010.2,0.01,140,0.0,////,0.0,0,0.0,////,16.3,0.0,12.2,3.523
2012/12/01,22:30:01,076,082,087,5.0,6.0,7.4,18.1,81.1,1010.0,0.05,380,0.6,////,0.0,0,0.0,////,16.2,0.0,12.3,3.524
2012/12/01,22:40:01,059,081,113,4.1,4.7,5.2,17.9,80.2,1009.8,0.00,50,0.0,////,0.0,0,0.0,////,16.0,0.0,12.3,3.523
2012/12/01,22:50:01,095,106,122,3.1,3.7,4.3,17.9,79.4,1010.5,0.00,0,0.0,////,0.0,0,0.0,////,16.3,0.0,12.4,3.524
2012/12/01,23:00:01,084,102,120,2.8,3.3,3.7,17.9,79.8,1011.0,0.17,520,0.7,////,0.0,0,0.0,////,16.2,0.0,12.3,3.521
2012/12/01,23:10:01,037,064,081,1.9,2.8,3.8,17.7,79.4,1011.7,0.33,580,3.8,////,0.0,0,0.0,////,16.0,0.0,12.3,3.523
2012/12/01,23:20:01,086,093,100,2.5,3.1,3.5,17.3,80.2,1011.5,0.65,590,6.8,////,0.0,0,0.0,////,15.6,0.0,12.2,3.523
2012/12/01,23:30:01,046,070,100,3.9,4.7,5.9,17.1,82.2,1011.5,0.19,570,0.3,////,0.0,0,0.0,////,15.1,0.0,12.4,3.521
2012/12/01,23:40:01,039,053,061,5.2,5.6,6.1,17.1,83.5,1011.0,0.03,340,0.7,////,0.0,0,0.0,////,15.5,0.0,12.2,3.523
2012/12/01,23:50:01,086,091,101,3.2,3.7,4.1,17.0,83.6,1011.2,0.05,390,0.0,////,0.0,0,0.0,////,15.3,0.0,12.4,3.524
2012/12/02,00:00:01,084,098,117,2.2,2.9,3.7,17.1,85.2,1011.0,0.00,30,0.0,////,0.0,0,0.0,////,15.5,0.0,12.3,3.523
2012/12/02,00:10:01,078,099,110,4.4,4.9,5.7,17.1,84.6,1010.5,0.08,370,1.5,////,0.0,0,0.0,////,15.6,0.0,12.3,3.521
2012/12/02,00:20:01,068,080,086,4.7,5.0,5.3,16.9,82.9,1009.9,0.04,270,0.0,////,0.0,0,0.0,////,15.3,0.0,12.2,3.523
2012/12/02,00:30:01,078,085,091,5.2,5.7,6.4,16.9,80.1,1009.8,0.00,0,0.0,////,0.0,0,0.0,////,15.5,0.0,12.3,3.524
2012/12/02,00:40:01,071,079,087,2.1,2.4,2.8,17.2,78.7,1009.9,0.00,10,0.0,////,0.0,0,0.0,////,15.6,0.0,12.3,3.523
2012/12/02,00:50:01,049,070,082,1.1,2.1,3.3,17.5,78.4,1010.0,0.00,0,0.0,////,0.0,0,0.0,////,16.0,0.0,12.3,3.521
2012/12/02,01:00:01,108,110,112,3.0,3.6,4.1,17.5,77.7,1010.0,0.04,190,0.4,////,0.0,0,0.0,////,16.0,0.0,12.2,3.523
2012/12/02,01:10:01,083,112,128,5.0,6.3,7.5,17.6,81.1,1009.7,0.25,590,1.0,////,0.0,0,0.0,////,15.8,0.0,12.3,3.520
2012/12/02,01:20:01,074,086,094,4.8,5.1,5.5,17.2,81.4,1008.9,0.03,160,0.0,////,0.0,0,0.0,////,15.5,0.0,12.3,3.524
2012/12/02,01:30:01,079,085,089,5.4,5.9,6.6,17.4,81.7,1008.4,0.00,0,0.0,////,0.0,0,0.0,////,15.6,0.0,12.1,3.523
2012/12/02,01:40:01,086,101,112,5.2,5.9,6.6,17.6,80.2,1008.4,0.00,0,0.0,////,0.0,0,0.0,////,16.0,0.0,12.3,3.523
2012/12/02,01:50:01,066,080,105,5.4,6.4,7.2,17.9,80.3,1008.7,0.00,0,0.0,////,0.0,0,0.0,////,16.5,0.0,12.2,3.521
2012/12/02,02:00:01,035,047,057,5.9,6.3,6.5,18.0,78.7,1009.6,0.00,0,0.0,////,0.0,0,0.0,////,16.9,0.0,12.3,3.523
2012/12/02,02:10:01,069,083,098,2.9,3.2,3.5,18.1,78.4,1009.6,0.01,60,0.3,////,0.0,0,0.0,////,17.0,0.0,12.4,3.523
2012/12/02,02:20:01,073,097,113,1.6,1.8,2.0,18.1,80.7,1009.3,0.18,560,0.9,////,0.0,0,0.0,////,16.5,0.0,12.4,3.523
2012/12/02,02:30:01,061,062,063,2.5,3.4,4.4,17.7,82.1,1009.5,0.01,170,0.0,////,0.0,0,0.0,////,16.0,0.0,12.3,3.521
2012/12/02,02:40:01,058,072,090,4.4,5.1,5.4,17.6,82.3,1008.8,0.00,10,0.0,////,0.0,0,0.0,////,16.0,0.0,12.4,3.524
2012/12/02,02:50:01,055,071,081,4.3,4.8,5.4,17.8,83.2,1008.6,0.00,20,0.0,////,0.0,0,0.0,////,16.0,0.0,12.2,3.523
2012/12/02,03:00:01,050,067,080,2.9,3.3,3.9,17.7,83.0,1008.8,0.00,0,0.0,////,0.0,0,0.0,////,16.2,0.0,12.4,3.523
2012/12/02,03:10:01,043,070,104,2.3,3.2,3.7,17.8,83.1,1008.9,0.00,0,0.0,////,0.0,0,0.0,////,16.3,0.0,12.2,3.523
2012/12/02,03:20:01,039,053,074,1.9,2.2,2.4,17.9,82.8,1008.6,0.00,10,0.0,////,0.0,0,0.0,////,16.7,0.0,12.2,3.521
2012/12/02,03:30:01,051,058,066,6.1,6.4,6.9,18.1,83.0,1008.4,0.00,0,0.0,////,0.0,0,0.0,////,16.7,0.0,12.3,3.521
2012/12/02,03:40:01,046,064,077,2.8,3.2,3.5,18.2,83.0,1008.4,0.00,0,0.0,////,0.0,0,0.0,////,17.0,0.0,12.2,3.521
2012/12/02,03:50:01,035,043,049,4.6,5.3,6.1,18.2,82.8,1008.2,0.00,0,0.0,////,0.0,0,0.0,////,17.2,0.0,12.3,3.521
2012/12/02,04:00:01,019,024,029,5.8,6.9,7.6,18.4,81.9,1007.9,0.00,0,0.0,////,0.0,0,0.0,////,17.4,0.0,12.2,3.521
2012/12/02,04:10:01,040,043,047,4.8,5.2,5.5,18.5,80.9,1007.5,0.00,0,0.0,////,0.0,0,0.0,////,17.4,0.0,12.3,3.521
2012/12/02,04:20:01,062,086,111,3.2,5.4,7.3,18.6,80.6,1007.3,0.00,0,0.0,////,0.0,0,0.0,////,17.2,0.0,12.2,3.523
2012/12/02,04:30:01,068,088,105,4.7,5.6,6.5,18.6,80.9,1007.1,0.00,0,0.0,////,0.0,0,0.0,////,17.2,0.0,12.4,3.523
2012/12/02,04:40:01,048,059,074,4.3,5.0,5.8,18.6,81.0,1006.8,0.00,0,0.0,////,0.0,0,0.0,////,17.2,0.0,12.3,3.521
2012/12/02,04:50:01,051,068,096,2.2,3.2,4.9,18.9,79.9,1006.3,0.00,0,0.0,////,0.0,0,0.0,////,17.7,0.0,12.3,3.523
2012/12/02,05:00:01,065,078,091,5.0,6.0,6.7,19.1,78.7,1006.4,0.00,0,0.0,////,0.0,0,0.0,////,17.9,0.0,12.2,3.521
2012/12/02,05:10:01,087,098,108,4.1,4.4,4.5,19.3,78.3,1006.0,0.00,0,0.0,////,0.0,0,0.0,////,18.7,0.0,12.2,3.521
2012/12/02,05:20:01,073,082,096,4.5,4.7,4.9,19.3,78.5,1005.9,0.00,0,0.0,////,0.0,0,0.0,////,18.2,0.0,12.3,3.523
2012/12/02,05:30:01,075,079,083,4.4,5.0,5.5,19.4,79.6,1006.0,0.01,100,0.0,////,0.0,0,0.0,////,18.1,0.0,12.3,3.523
2012/12/02,05:40:01,037,067,089,2.9,3.2,3.8,19.6,79.7,1005.7,0.02,200,0.4,////,0.0,0,0.0,////,18.4,0.0,12.3,3.521
2012/12/02,05:50:01,094,099,104,3.9,4.9,5.7,19.3,79.5,1005.8,0.11,440,0.0,////,0.0,0,0.0,////,17.7,0.0,12.2,3.523
2012/12/02,06:00:01,072,085,093,3.7,3.8,4.0,19.6,80.9,1005.7,0.00,70,0.0,////,0.0,0,0.0,////,17.9,0.0,12.3,3.523
2012/12/02,06:10:01,048,055,069,3.2,4.0,4.8,19.6,83.6,1006.3,0.44,460,10.5,////,0.0,0,0.0,////,17.9,0.0,12.3,3.521
2012/12/02,06:20:01,060,066,071,3.7,4.2,5.0,19.2,85.3,1006.7,0.47,560,2.6,////,0.0,0,0.0,////,17.7,0.0,12.2,3.521
2012/12/02,06:30:01,088,098,104,1.7,2.7,3.9,19.1,86.8,1007.1,4.41,590,50.2,////,0.0,0,0.0,////,17.5,0.0,12.4,3.523
2012/12/02,06:40:01,099,111,128,3.5,3.8,4.1,18.9,88.3,1007.3,4.79,590,11.7,////,0.0,0,0.0,////,17.4,0.0,12.2,3.521
2012/12/02,06:50:01,077,086,094,4.0,4.1,4.3,18.7,88.3,1006.8,1.57,590,7.1,////,0.0,0,0.0,////,17.2,0.0,12.3,3.521
2012/12/02,07:00:01,084,089,092,4.8,4.9,5.1,18.3,87.8,1006.5,1.08,590,15.4,////,0.0,0,0.0,////,16.9,0.0,12.2,3.521
2012/12/02,07:10:01,068,084,092,3.5,4.7,6.3,18.8,89.8,1006.9,1.61,580,1.5,////,0.0,0,0.0,////,17.2,0.0,12.3,3.523
2012/12/02,07:20:01,088,091,094,5.4,6.0,6.4,18.8,89.7,1006.3,0.51,590,4.2,////,0.0,0,0.0,////,17.2,0.0,12.3,3.523
2012/12/02,07:30:01,092,099,103,4.1,4.5,4.9,18.7,88.9,1006.9,0.07,400,0.0,////,0.0,0,0.0,////,17.0,0.0,12.3,3.521
2012/12/02,07:40:01,090,093,097,4.9,6.3,7.4,18.9,88.9,1006.8,0.00,20,0.0,////,0.0,0,0.0,////,17.5,0.0,12.3,3.521
2012/12/02,07:50:01,098,109,120,1.6,2.1,2.9,18.8,86.6,1006.8,0.01,20,0.0,////,0.0,0,0.0,////,17.9,0.0,12.3,3.523
2012/12/02,08:00:01,078,099,112,1.6,1.8,2.0,19.2,87.4,1006.9,0.21,470,0.7,////,0.0,0,0.0,////,18.1,0.0,12.3,3.521
2012/12/02,08:10:01,077,095,119,2.6,2.8,3.0,19.2,87.0,1006.7,0.27,580,1.2,////,0.0,0,0.0,////,17.9,0.0,12.3,3.521
2012/12/02,08:20:01,057,076,091,3.6,4.6,5.2,19.3,87.1,1006.6,0.33,530,1.8,////,0.0,0,0.0,////,17.9,0.0,12.4,3.523
2012/12/02,08:30:01,103,108,113,2.6,2.9,3.2,19.4,87.1,1006.5,0.32,590,1.9,////,0.0,0,0.0,////,17.9,0.0,12.3,3.523
2012/12/02,08:40:01,079,088,093,4.0,4.3,4.4,19.3,86.9,1006.6,0.17,530,0.9,////,0.0,0,0.0,////,17.7,0.0,12.3,3.523
2012/12/02,08:50:01,095,107,126,2.4,2.8,3.3,19.4,87.2,1006.7,0.21,590,1.8,////,0.0,0,0.0,////,17.9,0.0,12.3,3.521
2012/12/02,09:00:01,083,099,112,3.1,3.5,4.1,19.6,87.7,1006.3,0.17,570,0.8,////,0.0,0,0.0,////,18.2,0.0,12.3,3.521
2012/12/02,09:10:01,097,104,114,4.8,5.5,6.1,19.6,87.7,1006.3,0.45,590,0.5,////,0.0,0,0.0,////,18.2,0.0,12.2,3.523
2012/12/02,09:20:01,090,105,119,5.6,6.1,6.6,19.5,86.0,1005.7,0.01,100,0.0,////,0.0,0,0.0,////,18.2,0.0,12.3,3.523
2012/12/02,09:30:01,073,088,100,5.5,7.0,8.6,19.6,85.8,1005.5,0.00,0,0.0,////,0.0,0,0.0,////,18.7,0.0,12.3,3.521
2012/12/02,09:40:01,105,106,106,6.8,7.5,8.1,19.7,84.3,1005.7,0.00,0,0.0,////,0.0,0,0.0,////,18.7,0.0,12.4,3.521
2012/12/02,09:50:01,110,116,121,7.3,7.9,8.6,19.9,83.5,1006.1,0.00,0,0.0,////,0.0,0,0.0,////,18.7,0.0,12.2,3.523
2012/12/02,10:00:01,100,106,114,4.2,4.5,4.8,20.0,83.5,1006.3,0.00,50,0.0,////,0.0,0,0.0,////,18.9,0.0,12.4,3.523
2012/12/02,10:10:01,077,087,094,7.2,7.5,7.9,20.1,83.2,1006.5,0.01,60,0.1,////,0.0,0,0.0,////,18.9,0.0,12.2,3.521
2012/12/02,10:20:01,102,107,111,4.3,4.5,4.8,20.0,84.0,1006.1,0.37,530,3.2,////,0.0,0,0.0,////,18.7,0.0,12.3,3.521
2012/12/02,10:30:01,101,108,114,7.1,7.8,8.6,20.0,85.0,1006.0,0.25,580,0.6,////,0.0,0,0.0,////,18.6,0.0,12.3,3.521